• In Portugal
  • List of Countries
  • For 7 days
  • Water Temperature
  • Satellite Maps
  • Weather Map
  • Weather Widgets
  • user-avatar
    Login

    Hourly Weather Natitingou

    Today, 19 October, Friday

    Time Temperature Precipitation Wind Pressure Humidity
    00:00 +27°C° 0 mm 2 mps 716 mmHg 69%
    01:00 +26°C° 0 mm 2 mps 716 mmHg 73%
    02:00 +26°C° 0 mm 2 mps 716 mmHg 76%
    03:00 +25°C° 0 mm 2 mps 716 mmHg 79%
    04:00 +25°C° 0 mm 2 mps 716 mmHg 82%
    05:00 +24°C° 0 mm 2 mps 716 mmHg 84%
    06:00 +24°C° 0 mm 1 mps 716 mmHg 87%
    07:00 +26°C° 0 mm 2 mps 717 mmHg 79%
    08:00 +28°C° 0 mm 2 mps 717 mmHg 71%
    09:00 +30°C° 0 mm 3 mps 718 mmHg 63%
    10:00 +32°C° 0 mm 2 mps 718 mmHg 55%
    11:00 +35°C° 0 mm 1 mps 718 mmHg 47%
    12:00 +37°C° 0 mm 1 mps 717 mmHg 40%
    13:00 +37°C° 0 mm 1 mps 716 mmHg 38%
    14:00 +36°C° 0 mm 1 mps 716 mmHg 35%
    15:00 +37°C° 0 mm 2 mps 715 mmHg 33%
    16:00 +36°C° 0 mm 2 mps 715 mmHg 37%
    17:00 +33°C° 0 mm 1 mps 715 mmHg 41%
    18:00 +31°C° 0 mm 1 mps 715 mmHg 45%
    19:00 +30°C° 0 mm 1 mps 715 mmHg 48%
    20:00 +30°C° 0 mm 1 mps 716 mmHg 51%
    21:00 +29°C° 0 mm 1 mps 716 mmHg 54%
    22:00 +28°C° 0 mm 1 mps 716 mmHg 56%
    23:00 +28°C° 0 mm 1 mps 716 mmHg 59%

    Tomorrow, 20 October, Saturday

    Time Temperature Precipitation Wind Pressure Humidity
    00:00 +27°C° 0 mm 1 mps 716 mmHg 61%
    01:00 +27°C° 0 mm 1 mps 715 mmHg 64%
    02:00 +26°C° 0 mm 1 mps 715 mmHg 67%
    03:00 +26°C° 0 mm 1 mps 715 mmHg 69%
    04:00 +25°C° 0 mm 1 mps 715 mmHg 71%
    05:00 +25°C° 0 mm 1 mps 715 mmHg 73%
    06:00 +25°C° 0 mm 1 mps 716 mmHg 75%
    07:00 +27°C° 0 mm 1 mps 716 mmHg 68%
    08:00 +29°C° 0 mm 1 mps 717 mmHg 60%
    09:00 +32°C° 0 mm 2 mps 718 mmHg 53%
    10:00 +34°C° 0 mm 1 mps 718 mmHg 46%
    11:00 +36°C° 0 mm 1 mps 717 mmHg 40%
    12:00 +40°C° 0 mm 1 mps 717 mmHg 33%
    13:00 +39°C° 0 mm 1 mps 716 mmHg 32%
    14:00 +38°C° 0 mm 2 mps 716 mmHg 31%
    15:00 +38°C° 0 mm 2 mps 715 mmHg 29%
    16:00 +36°C° 0 mm 2 mps 715 mmHg 34%
    17:00 +33°C° 0 mm 1 mps 715 mmHg 38%
    18:00 +31°C° 0 mm 1 mps 715 mmHg 43%
    19:00 +30°C° 0 mm 1 mps 715 mmHg 46%
    20:00 +29°C° 0 mm 1 mps 716 mmHg 49%
    21:00 +29°C° 0 mm 1 mps 716 mmHg 51%
    22:00 +28°C° 0 mm 1 mps 716 mmHg 54%
    23:00 +27°C° 0 mm 1 mps 716 mmHg 56%

    Day after tomorrow, 21 October, Sunday

    Time Temperature Precipitation Wind Pressure Humidity
    00:00 +27°C° 0 mm 1 mps 716 mmHg 59%
    01:00 +26°C° 0 mm 1 mps 715 mmHg 61%
    02:00 +26°C° 0 mm 1 mps 715 mmHg 63%
    03:00 +26°C° 0 mm 1 mps 715 mmHg 65%
    04:00 +25°C° 0 mm 1 mps 715 mmHg 68%
    05:00 +25°C° 0 mm 1 mps 715 mmHg 70%
    06:00 +25°C° 0 mm 1 mps 715 mmHg 72%
    07:00 +27°C° 0 mm 1 mps 716 mmHg 64%
    08:00 +30°C° 0 mm 1 mps 717 mmHg 57%
    09:00 +33°C° 0 mm 1 mps 717 mmHg 49%
    10:00 +36°C° 0 mm 2 mps 717 mmHg 41%
    11:00 +37°C° 0 mm 2 mps 716 mmHg 32%
    12:00 +39°C° 0 mm 2 mps 716 mmHg 24%
    13:00 +39°C° 0 mm 2 mps 715 mmHg 23%
    14:00 +39°C° 0 mm 3 mps 715 mmHg 21%
    15:00 +39°C° 0 mm 3 mps 714 mmHg 20%
    16:00 +37°C° 0 mm 3 mps 714 mmHg 26%
    17:00 +35°C° 0 mm 2 mps 714 mmHg 31%
    18:00 +31°C° 0 mm 2 mps 714 mmHg 36%
    19:00 +30°C° 0 mm 2 mps 715 mmHg 41%
    20:00 +30°C° 0 mm 2 mps 715 mmHg 45%
    21:00 +29°C° 0 mm 2 mps 716 mmHg 49%
    22:00 +28°C° 0 mm 2 mps 716 mmHg 53%
    23:00 +28°C° 0 mm 2 mps 716 mmHg 57%

    22 October, Monday

    Time Temperature Precipitation Wind Pressure Humidity
    00:00 +27°C° 0 mm 2 mps 716 mmHg 61%
    01:00 +26°C° 0 mm 2 mps 715 mmHg 65%
    02:00 +26°C° 0 mm 2 mps 715 mmHg 69%
    03:00 +25°C° 0 mm 2 mps 715 mmHg 73%
    04:00 +25°C° 0 mm 1 mps 715 mmHg 75%
    05:00 +25°C° 0 mm 1 mps 715 mmHg 78%
    06:00 +24°C° 0 mm 1 mps 716 mmHg 81%
    07:00 +26°C° 0 mm 2 mps 716 mmHg 74%
    08:00 +28°C° 0 mm 2 mps 717 mmHg 68%
    09:00 +31°C° 0 mm 3 mps 717 mmHg 62%
    10:00 +34°C° 0 mm 2 mps 717 mmHg 54%
    11:00 +36°C° 0 mm 2 mps 716 mmHg 46%
    12:00 +37°C° 0 mm 1 mps 716 mmHg 38%
    13:00 +37°C° 0 mm 1 mps 715 mmHg 34%
    14:00 +39°C° 0 mm 1 mps 715 mmHg 31%
    15:00 +39°C° 0 mm 1 mps 714 mmHg 27%
    16:00 +36°C° 0 mm 1 mps 714 mmHg 31%
    17:00 +34°C° 0 mm 1 mps 714 mmHg 34%
    18:00 +32°C° 0 mm 1 mps 715 mmHg 38%
    19:00 +31°C° 0 mm 1 mps 715 mmHg 41%
    20:00 +30°C° 0 mm 1 mps 716 mmHg 43%
    21:00 +29°C° 0 mm 2 mps 716 mmHg 46%
    22:00 +29°C° 0 mm 2 mps 716 mmHg 50%
    23:00 +28°C° 0 mm 1 mps 716 mmHg 53%

    23 October, Tuesday

    Time Temperature Precipitation Wind Pressure Humidity
    00:00 +28°C° 0 mm 1 mps 716 mmHg 57%
    01:00 +27°C° 0 mm 1 mps 716 mmHg 60%
    02:00 +27°C° 0 mm 1 mps 715 mmHg 64%
    03:00 +26°C° 0 mm 1 mps 715 mmHg 67%
    04:00 +26°C° 0 mm 1 mps 716 mmHg 69%
    05:00 +26°C° 0 mm 1 mps 716 mmHg 71%
    06:00 +25°C° 0 mm 1 mps 716 mmHg 74%
    07:00 +28°C° 0 mm 2 mps 717 mmHg 67%
    08:00 +30°C° 0 mm 3 mps 717 mmHg 61%
    09:00 +33°C° 0 mm 3 mps 718 mmHg 55%
    10:00 +34°C° 0 mm 3 mps 717 mmHg 49%
    11:00 +36°C° 0 mm 3 mps 717 mmHg 42%
    12:00 +38°C° 0 mm 2 mps 716 mmHg 36%
    13:00 +38°C° 0 mm 2 mps 716 mmHg 35%
    14:00 +37°C° 0 mm 2 mps 715 mmHg 34%
    15:00 +36°C° 0 mm 1 mps 714 mmHg 34%
    16:00 +35°C° 0 mm 1 mps 715 mmHg 37%
    17:00 +33°C° 0 mm 1 mps 715 mmHg 40%
    18:00 +32°C° 0 mm 1 mps 715 mmHg 43%
    19:00 +31°C° 0 mm 1 mps 716 mmHg 44%
    20:00 +30°C° 0 mm 1 mps 716 mmHg 46%
    21:00 +30°C° 0 mm 1 mps 716 mmHg 47%
    22:00 +29°C° 0 mm 1 mps 716 mmHg 50%
    23:00 +29°C° 0 mm 1 mps 716 mmHg 52%

    24 October, Wednesday

    Time Temperature Precipitation Wind Pressure Humidity
    00:00 +28°C° 0 mm 1 mps 716 mmHg 55%
    01:00 +28°C° 0 mm 1 mps 716 mmHg 58%
    02:00 +27°C° 0 mm 1 mps 716 mmHg 62%
    03:00 +27°C° 0 mm 1 mps 715 mmHg 65%
    04:00 +26°C° 0 mm 1 mps 716 mmHg 68%
    05:00 +26°C° 0 mm 2 mps 716 mmHg 71%
    06:00 +26°C° 0 mm 2 mps 716 mmHg 74%
    07:00 +27°C° 0 mm 2 mps 717 mmHg 69%
    08:00 +29°C° 0 mm 3 mps 717 mmHg 63%
    09:00 +31°C° 0 mm 3 mps 718 mmHg 58%
    10:00 +34°C° 0 mm 3 mps 717 mmHg 52%
    11:00 +36°C° 0 mm 3 mps 717 mmHg 47%
    12:00 +37°C° 0 mm 3 mps 716 mmHg 41%
    13:00 +38°C° 0 mm 2 mps 716 mmHg 37%
    14:00 +39°C° 0 mm 1 mps 715 mmHg 33%
    15:00 +36°C° 0 mm 0 mps 714 mmHg 29%
    16:00 +36°C° 0 mm 1 mps 715 mmHg 33%
    17:00 +34°C° 0 mm 1 mps 715 mmHg 37%
    18:00 +32°C° 0 mm 1 mps 715 mmHg 41%
    19:00 +31°C° 0 mm 2 mps 715 mmHg 46%
    20:00 +31°C° 0 mm 2 mps 716 mmHg 51%
    21:00 +30°C° 0 mm 3 mps 716 mmHg 55%
    22:00 +29°C° 0 mm 3 mps 716 mmHg 60%
    23:00 +29°C° 0 mm 3 mps 716 mmHg 65%
    Show more